Vorticity
nan nan nan nan nan nan nan nan nan nan nan nan nan nan nan nan nan nan nan nan nan nan nan nan nan nan nan nan nan nan nan nan nan nan nan nan nan nan nan nan nan nan nan nan nan
nan 7 7 7 8 8 8 8 7 7 8 9 10 9 8 13 11 5 15 20 9 1 6 6 8 8 9 7 8 8 2 1 1 3 3 2 5 9 13 12 7 7 10 8 nan
nan 8 8 8 9 10 10 10 9 7 8 9 10 10 12 15 10 5 13 20 10 5 8 9 8 8 7 9 9 8 2 0 2 3 7 7 8 4 8 7 8 8 5 3 nan
nan 9 9 10 11 12 12 12 10 9 10 7 6 11 18 12 11 6 2 5 8 11 6 6 6 6 8 11 6 -0 2 6 8 7 9 7 8 10 6 5 8 5 6 6 nan
nan 8 9 10 12 13 13 13 11 10 9 7 5 12 16 9 7 5 2 2 4 6 8 6 3 7 6 4 6 6 5 6 8 8 9 11 12 11 10 8 10 11 6 13 nan
nan 7 7 9 12 13 12 10 10 10 9 12 17 15 14 11 2 2 6 8 8 8 9 5 6 8 11 8 7 6 7 9 13 14 10 15 12 11 12 16 12 23 18 8 nan
nan 7 8 8 8 9 11 11 11 9 7 19 21 6 9 7 6 10 8 10 10 10 8 9 12 8 9 10 6 6 8 12 14 10 7 15 9 4 5 16 14 8 15 17 nan
nan 8 8 8 7 9 11 14 13 9 7 8 7 8 9 7 6 10 9 6 8 9 9 10 8 10 7 8 9 13 8 2 5 9 8 5 5 5 9 8 10 9 8 7 nan
nan 7 8 9 8 10 14 13 12 6 8 13 10 8 9 9 5 4 9 7 7 7 5 7 7 9 7 5 16 5 -4 5 5 5 10 6 3 6 10 12 15 12 8 13 nan
nan 6 9 11 9 11 17 13 10 11 9 9 13 14 5 5 8 9 10 10 7 6 5 6 5 9 8 5 3 1 6 6 4 7 7 8 9 8 18 17 17 18 13 9 nan
nan 6 9 12 14 14 21 19 11 5 2 10 11 11 9 9 8 8 8 10 8 3 7 8 3 9 9 9 2 4 4 6 6 7 8 6 10 10 16 16 15 15 21 24 nan
nan 6 7 16 10 13 24 14 10 10 6 8 7 6 6 8 12 9 6 9 5 6 12 6 3 7 6 6 5 5 6 8 10 6 4 9 12 16 7 7 7 11 14 11 nan
nan 6 8 21 12 4 10 8 7 9 10 9 5 8 8 8 9 9 8 8 9 8 7 5 15 7 4 3 6 8 13 8 6 10 13 12 9 10 2 1 5 7 4 6 nan
nan 6 8 20 18 5 2 3 8 11 15 11 7 10 5 8 8 7 10 9 7 3 11 14 11 4 4 7 11 9 10 6 6 9 7 7 12 8 2 -0 2 4 7 8 nan
nan 7 8 15 16 9 4 9 12 10 11 9 6 6 8 7 12 12 6 8 3 9 8 5 1 6 8 11 11 7 2 8 8 7 8 11 13 11 9 4 -1 5 6 7 nan
nan 8 15 14 7 4 7 14 13 8 11 9 6 6 10 10 5 6 8 4 6 13 10 2 5 14 11 10 9 8 7 14 16 14 11 11 10 5 5 9 4 3 4 6 nan
nan 9 15 11 5 6 14 11 8 12 11 7 6 4 8 12 10 7 9 5 10 9 9 18 18 9 10 13 13 2 6 14 16 10 5 11 8 5 14 8 4 4 3 6 nan
nan 8 9 9 6 11 12 9 8 8 8 8 6 8 9 12 9 5 8 12 12 5 8 12 17 13 6 3 4 14 14 7 4 2 2 11 11 11 12 7 5 3 2 5 nan
nan 9 8 4 8 12 12 7 6 10 8 7 12 17 12 4 3 12 11 14 12 12 9 11 8 5 6 8 6 12 12 5 13 15 10 10 7 7 10 4 -0 3 5 5 nan
nan 10 10 5 12 13 10 8 7 9 10 10 11 9 7 9 9 9 12 16 9 10 7 8 11 8 10 13 10 0 6 16 11 10 9 6 14 12 7 5 9 5 7 7 nan
nan 9 8 10 14 11 7 9 11 9 9 5 7 7 6 8 9 6 9 8 12 11 4 10 13 11 4 3 15 13 6 6 5 4 9 10 8 -2 5 15 8 6 7 9 nan
nan 9 8 11 12 10 8 8 10 11 9 8 8 10 12 11 11 6 9 8 7 9 10 9 8 6 4 14 16 9 9 10 8 9 6 6 5 2 10 8 1 9 13 11 nan
nan 10 8 12 12 9 9 8 9 12 8 8 9 10 11 9 9 9 6 10 10 6 8 11 6 6 13 10 8 12 13 6 3 11 4 4 3 11 11 -2 0 9 14 11 nan
nan 9 8 9 9 10 12 12 11 9 9 9 9 8 9 10 7 5 6 5 8 5 4 9 7 3 -0 -3 5 8 6 8 8 3 8 2 -3 3 4 5 10 11 9 9 nan
nan 9 10 12 11 10 8 9 9 10 12 9 13 12 5 5 9 7 4 4 9 13 13 7 5 7 8 7 -1 3 7 10 8 2 0 -1 5 6 6 11 12 11 9 8 nan
nan 9 9 13 15 12 7 7 8 11 10 7 6 11 10 5 2 6 14 12 8 12 15 10 9 10 8 13 17 13 12 14 10 7 8 8 8 11 9 14 13 9 8 7 nan
nan nan nan nan nan nan nan nan nan nan nan nan nan nan nan nan nan nan nan nan nan nan nan nan nan nan nan nan nan nan nan nan nan nan nan nan nan nan nan nan nan nan nan nan nan
CAPE
9 8 8 9 9 10 11 9 14 14 7 11 12 7 10 9 27 20 33 31 22 0 0 0 1 2 1 11 0 6 1 0 0 0 0 0 0 0 0 2 4 8 0 0 0
8 8 6 7 8 10 15 14 17 20 21 29 30 24 10 24 24 29 13 0 29 1 6 14 6 3 16 13 16 17 6 0 0 4 2 2 1 1 0 0 0 2 12 4 0
9 8 9 9 13 11 15 24 21 22 27 31 23 9 0 9 19 43 65 10 31 26 7 7 0 0 1 14 18 18 16 3 2 4 10 14 12 15 23 19 19 13 1 9 5
6 7 10 12 16 18 19 23 26 31 35 20 14 17 9 18 1 7 20 5 0 0 0 0 0 1 12 2 14 24 19 13 10 12 10 5 6 18 19 10 0 0 0 1 0
7 8 14 13 15 27 26 29 27 27 17 13 0 3 5 7 0 0 0 0 0 0 0 0 0 12 16 26 20 14 13 3 0 2 5 9 9 9 1 0 0 1 0 4 0
7 7 4 14 20 27 26 28 26 15 4 0 3 13 10 1 0 0 0 0 0 0 1 0 0 2 7 4 4 3 4 0 0 0 0 4 7 0 2 0 7 13 1 17 0
7 6 5 8 9 3 6 4 7 3 0 5 27 8 7 0 0 0 0 0 0 0 0 0 0 0 4 0 0 0 1 0 0 0 1 0 0 0 4 16 6 1 10 29 3
6 4 3 4 3 0 0 2 1 0 0 0 0 5 5 0 0 0 0 0 0 0 0 0 0 1 0 0 0 0 0 0 0 0 0 0 3 0 1 11 23 5 0 0 29
5 3 2 3 0 0 0 0 0 0 0 0 7 7 2 0 0 0 0 0 0 0 0 0 0 1 0 0 0 0 0 0 0 0 0 4 3 0 3 4 6 15 1 9 0
3 1 1 3 0 0 0 0 0 0 0 0 0 0 0 0 0 0 0 0 0 0 0 0 0 0 1 0 0 0 0 0 0 0 0 0 0 0 0 0 2 5 2 4 4
2 1 0 1 0 0 0 0 0 0 0 0 0 0 0 0 0 0 0 0 0 0 0 0 0 0 0 0 0 0 0 0 0 0 0 0 0 0 0 0 0 1 8 7 4
1 0 0 0 0 0 0 0 0 1 0 0 0 0 0 0 0 0 0 0 0 0 0 0 0 0 0 0 0 0 0 0 0 0 0 0 0 0 0 0 0 8 22 2 6
1 0 0 0 0 0 0 0 0 2 1 0 0 0 0 0 0 0 0 0 0 0 0 0 0 0 0 0 0 0 0 0 0 0 0 0 0 1 0 0 0 0 0 6 13
1 1 0 0 0 0 0 0 0 0 8 0 0 0 0 0 0 0 0 0 0 0 0 0 0 0 0 0 0 0 0 0 0 0 0 0 0 0 0 0 0 0 0 0 0
4 0 0 0 0 0 0 0 0 2 1 0 0 0 0 0 0 0 0 0 0 0 0 0 0 0 0 0 0 0 0 0 0 0 0 0 8 0 15 0 0 0 0 0 0
0 0 0 0 0 0 0 0 2 0 0 0 0 0 0 0 0 0 0 0 0 0 0 0 0 0 0 0 0 0 0 0 0 0 28 10 16 6 2 1 0 0 0 0 0
0 0 0 0 0 0 0 2 0 5 0 0 0 0 0 0 0 0 0 0 0 0 0 0 0 0 0 0 0 0 2 21 7 30 59 9 12 7 0 4 0 0 0 0 0
0 0 0 0 0 0 0 0 0 0 0 0 0 0 0 0 0 0 0 0 0 0 0 0 0 0 0 0 0 0 0 18 7 20 9 0 4 3 0 7 2 0 0 0 0
0 0 1 0 0 0 0 4 0 0 0 0 0 0 0 0 0 0 0 0 0 0 0 0 0 0 0 0 0 0 2 15 15 4 51 13 4 2 1 4 1 0 0 0 0
0 0 1 0 0 0 0 0 0 0 0 0 0 0 0 0 0 0 0 0 0 0 0 0 1 0 0 0 0 0 0 10 33 37 22 10 9 10 0 0 0 0 0 0 0
0 1 1 0 0 0 0 0 0 0 0 0 0 0 0 0 0 0 0 0 0 0 0 0 11 0 0 0 6 11 10 9 5 28 32 25 7 4 0 0 0 0 0 0 1
0 5 0 0 1 1 0 0 0 0 0 0 0 0 0 0 9 2 0 0 0 0 0 4 24 18 3 0 0 0 1 0 51 25 8 22 10 0 3 0 0 0 0 0 0
2 3 0 0 2 5 0 0 0 0 0 0 0 0 0 0 0 9 5 0 0 0 0 1 11 16 1 0 0 0 0 0 5 1 9 50 7 6 6 0 3 0 0 0 0
3 5 6 5 0 0 0 0 0 0 0 0 0 0 3 3 4 1 7 5 0 0 0 4 24 20 22 23 57 36 0 0 32 12 11 48 46 37 6 21 0 4 0 0 0
2 0 0 4 2 0 0 1 0 0 0 0 3 1 3 7 2 0 5 6 8 16 23 58 28 27 22 37 45 56 40 11 21 16 70 17 25 8 47 25 1 0 0 0 0
0 0 0 1 0 3 3 0 0 0 0 0 0 0 3 12 3 1 12 13 36 10 14 69 18 18 19 9 18 28 20 37 25 4 33 15 11 40 11 0 1 4 0 0 0
0 0 0 0 3 3 0 0 0 0 0 0 0 2 2 1 8 13 13 12 16 39 10 17 19 25 19 6 7 5 1 11 20 48 44 70 81 10 0 3 18 13 0 0 0